Location: ???? ?????
(30.0052°N, 31.2891°E)
Time: 21:11:11
(UTC+00:00)

Cosmos 1331 Rocket - Pass Details

Date: 02 October 2022
Orbit: 748 x 778 km, 74.0° (Epoch: 06 December)

Event Time Altitude Azimuth Distance (km) Brightness Sun altitude
Exits shadow 02:28:55 12° 206° (SSW) 2,124 6.0 -18.1°
Maximum altitude 02:33:38 64° 287° (WNW) 827 3.9 -17.0°
Drops below altitude 10° 02:38:44 10° 9° (N) 2,269 6.6 -16.0°
Sets 02:41:07 0° 12° (NNE) 3,198 7.4 -15.4°
